Regional Weather Roundup
Issued by NWS Jackson, KY

Home | Current Version | Previous Version | Text Only | Print | Product List | Glossary Off
Versions: 1 2 3 4 5 6 7 8 9 10 11 12 13 14 15 16 17 18 19 20 21 22 23 24 25 26 27 28 29 30 31 32 33 34 35 36 37 38 39 40 41 42 43 44 45 46 47 48 49 50

388
ASUS43 KJKL 290410
RWRJKL

EAST KENTUCKY HOURLY WEATHER ROUNDUP
NATIONAL WEATHER SERVICE JACKSON KY
1200 AM EDT FRI APR 29 2016

NOTE: "FAIR" INDICATES FEW OR NO CLOUDS BELOW 12,000 FEET WITH
NO SIGNIFICANT WEATHER AND/OR OBSTRUCTIONS TO VISIBILITY.

* THESE REPORTS ARE NOT UNDER NWS QUALITY CONTROL AND MAY NOT
  REPORT WEATHER SUCH AS PRECIPITATION AND FOG.

KYZ079-080-083-085-087-088-110-112-115-119-120-290500
...EASTERN KENTUCKY...

CITY           SKY/WX    TMP DP  RH WIND       PRES   REMARKS
JACKSON        CLEAR     66  52  60 W5        29.97R
LONDON         CLEAR     64  54  69 W3        29.98R
SOMERSET*      CLEAR     59  54  82 CALM      29.99R
MONTICELLO*    CLEAR     57  55  93 VRB7      30.00R
WILLIAMSBURG*  CLEAR     59  50  72 CALM      29.99R
MIDDLESBORO*   CLEAR     60  57  88 W5        29.98R
HARLAN APT*      N/A     59  55  88 CALM      29.99R
HAZARD APT*    CLEAR     68  54  60 W5        29.97R
BLACK MTN*       N/A     57  54  88 SW1         N/A
PIKE CO APT*     N/A     65  57  77 W7        29.96R
BIG SANDY APT* MOCLDY    63  61  94 W5        29.96R
MOREHEAD APT*  LGT RAIN  64  46  52 CALM      29.96S
$$

KYZ035-036-041-042-044-050-067-078-099-290500
...CENTRAL KENTUCKY...

CITY           SKY/WX    TMP DP  RH WIND       PRES   REMARKS
MT STERLING*   CLEAR     59  50  72 W5        29.97S
FLEMING/MASON* CLEAR     63  49  60 NW3       29.96R
DANVILLE*      CLEAR     61  50  67 CALM      29.99R
RICHMOND*      CLEAR     64  50  59 W5        29.96S
LEXINGTON      CLEAR     61  48  62 SW3       29.96R
FRANKFORT      CLEAR     58  49  72 CALM      29.94R
LOUISVILLE     PTCLDY    64  50  60 NW8       29.96R
LEBANON*         N/A     63  50  63 S5        29.97S
BOWLING GREEN  CLEAR     66  51  58 W5        29.98R
$$

KYZ091>093-OHZ055-061-077-WVZ005-015-034-035-042-290500
...SOUTHERN OHIO/WEST VIRGINIA...

CITY           SKY/WX    TMP DP  RH WIND       PRES   REMARKS
COVINGTON      CLEAR     60  57  89 N5        29.94S
COLUMBUS       CLOUDY    53  50  89 N6        29.94R
DAYTON         CLOUDY    51  50  96 N7        29.96S FOG
WILMINGTON     CLEAR     53  51  93 NE7       29.94S FOG
HUNTINGTON       N/A     63  59  87 SW6       29.91R
CHARLESTON       N/A     63  58  83 S6        29.90R
PINEVILLE*       N/A     58  55  91 MISG      30.00S FOG
BECKLEY        LGT RAIN  59  56  89 S6        29.96F
$$

VAZ002-007-008-TNZ017-027-036-066-071-290500
...SOUTHWEST VIRGINIA/EAST TENNESSEE...

CITY           SKY/WX    TMP DP  RH WIND       PRES   REMARKS
WISE*            N/A     64  50  59 W7        30.02S
BRISTOL        PTCLDY    61  55  81 CALM      29.96R
MORRISTOWN*    PTCLDY    66  57  72 CALM      29.96R
SEVIERVILLE*   CLEAR     63  55  77 CALM      29.96R
KNOXVILLE      CLEAR     68  57  68 SW7       29.96R
OAK RIDGE      CLEAR     67  57  70 CALM      29.97S
CROSSVILLE     CLEAR     65  52  62 W6        30.03R
NASHVILLE      CLEAR     64  53  67 CALM      29.99R
$$

...KEY TO REMARKS...
VSB - VISIBILITY IN MILES
WCI - WIND CHILL INDEX
HX  - HEAT INDEX

$$




USA.gov is the U.S. government's official web portal to all federal, state and local government web resources and services.